K5SVV Weather Reports


Display with metric or nautical units.
time (UTC)temp
F
wind
direction
speed
MPH
gust
MPH
rain 1hr
in
rain 24hr
in
rain mn
in
humidity
%
barometer
mb
20260905044857 84 178 3.0 3.0 0.00 0.00 0.00 71 1012.8
20260905044352 84 175 0.0 0.0 0.00 0.00 0.00 71 1013.0
20260905043851 84 190 0.0 1.0 0.00 0.00 0.00 71 1012.7
20260905043346 84 197 4.0 6.0 0.00 0.00 0.00 71 1012.9
20260905042841 84 198 4.0 4.0 0.00 0.00 0.00 70 1012.9
20260905042341 84 203 3.0 4.0 0.00 0.00 0.00 69 1013.0
20260905041835 84 192 4.0 4.0 0.00 0.00 0.00 69 1012.8
20260905041332 85 220 5.0 7.0 0.00 0.00 0.00 69 1012.9
20260905040826 84 189 4.0 6.0 0.00 0.00 0.00 68 1012.8
20260905040324 84 130 4.0 4.0 0.00 0.00 0.00 68 1012.9
20260905035819 85 184 6.0 7.0 0.00 0.00 0.00 68 1013.0
20260905035315 85 189 0.0 0.0 0.00 0.00 0.00 68 1013.0
20260905034811 85 185 2.0 2.0 0.00 0.00 0.00 67 1013.3
20260905034306 85 179 4.0 6.0 0.00 0.00 0.00 67 1012.9
20260905033805 85 167 0.0 0.0 0.00 0.00 0.00 67 1013.1
20260905033300 86 193 5.0 6.0 0.00 0.00 0.00 67 1013.0
20260905032759 86 184 3.0 3.0 0.00 0.00 0.00 66 1013.3
20260905032255 86 167 0.0 1.0 0.00 0.00 0.00 66 1013.2
20260905031750 86 190 0.0 0.0 0.00 0.00 0.00 66 1013.2
20260905031246 86 179 3.0 4.0 0.00 0.00 0.00 65 1013.0
20260905030741 86 168 3.0 4.0 0.00 0.00 0.00 65 1013.2
20260905030236 86 180 2.0 3.0 0.00 0.00 0.00 65 1012.9
20260905025731 87 165 4.0 4.0 0.00 0.00 0.00 64 1012.9
20260905025226 87 149 0.0 2.0 0.00 0.00 0.00 64 1012.8
20260905024722 87 184 2.0 2.0 0.00 0.00 0.00 63 1012.8
20260905024218 87 150 4.0 6.0 0.00 0.00 0.00 63 1012.7
20260905023713 87 184 1.0 1.0 0.00 0.00 0.00 63 1012.7
20260905023213 87 192 3.0 4.0 0.00 0.00 0.00 63 1012.6
20260905022711 87 180 4.0 6.0 0.00 0.00 0.00 63 1012.3
20260905022207 88 162 2.0 2.0 0.00 0.00 0.00 63 1012.4
20260905021701 88 179 0.0 0.0 0.00 0.00 0.00 62 1012.0
20260905021156 88 165 4.0 4.0 0.00 0.00 0.00 62 1012.4
20260905020651 88 129 5.0 8.0 0.00 0.00 0.00 61 1012.2
20260905020147 88 155 4.0 6.0 0.00 0.00 0.00 61 1012.0
20260905015645 89 175 0.0 1.0 0.00 0.00 0.00 60 1011.9
20260905015139 89 170 2.0 2.0 0.00 0.00 0.00 59 1011.8
20260905014633 89 180 1.0 2.0 0.00 0.00 0.00 58 1011.8
20260905014128 89 190 0.0 0.0 0.00 0.00 0.00 57 1011.9
20260905013625 89 180 0.0 1.0 0.00 0.00 0.00 57 1011.7
20260905013120 90 191 3.0 4.0 0.00 0.00 0.00 55 1011.6
20260905012615 90 173 1.0 2.0 0.00 0.00 0.00 54 1011.7
20260905012112 90 184 2.0 3.0 0.00 0.00 0.00 53 1011.7
20260905011607 90 167 1.0 1.0 0.00 0.00 0.00 52 1011.5
20260905011102 90 172 1.0 1.0 0.00 0.00 0.00 52 1011.3
20260905010556 91 176 1.0 1.0 0.00 0.00 0.00 51 1011.4
20260905010053 91 163 2.0 2.0 0.00 0.00 0.00 51 1011.3
20260905005548 91 165 3.0 4.0 0.00 0.00 0.00 50 1011.1
20260905005044 91 181 2.0 2.0 0.00 0.00 0.00 50 1011.1
20260905004538 92 180 0.0 0.0 0.00 0.00 0.00 49 1011.1
20260905004034 92 189 2.0 3.0 0.00 0.00 0.00 49 1011.1
20260905003530 93 183 4.0 6.0 0.00 0.00 0.00 48 1011.0
20260905003025 93 166 2.0 2.0 0.00 0.00 0.00 48 1011.2
20260905002520 93 154 0.0 0.0 0.00 0.00 0.00 48 1011.1
20260905002014 93 190 2.0 4.0 0.00 0.00 0.00 48 1011.0
20260905001509 94 154 3.0 4.0 0.00 0.00 0.00 48 1010.9
20260905001003 94 167 3.0 6.0 0.00 0.00 0.00 47 1010.9
20260905000459 95 153 1.0 2.0 0.00 0.00 0.00 48 1011.0
20260904235954 95 177 1.0 2.0 0.00 0.00 0.00 47 1010.8
20260904235450 95 119 4.0 6.0 0.00 0.00 0.00 47 1010.8
20260904234950 95 139 3.0 4.0 0.00 0.00 0.00 47 1011.0
20260904234449 96 200 5.0 7.0 0.00 0.00 0.00 48 1010.8
20260904233946 95 162 6.0 7.0 0.00 0.00 0.00 49 1010.7
20260904233441 96 199 8.0 10.0 0.00 0.00 0.00 48 1010.6
20260904232937 96 172 5.0 8.0 0.00 0.00 0.00 48 1010.7
20260904232433 96 174 4.0 4.0 0.00 0.00 0.00 47 1010.5
20260904231929 97 180 5.0 6.0 0.00 0.00 0.00 47 1010.6
20260904231424 97 135 4.0 6.0 0.00 0.00 0.00 46 1010.7
20260904230919 97 149 2.0 3.0 0.00 0.00 0.00 46 1010.5
20260904230418 97 216 4.0 4.0 0.00 0.00 0.00 46 1010.6
20260904225913 97 173 1.0 2.0 0.00 0.00 0.00 46 1010.6
20260904225411 97 197 9.0 10.0 0.00 0.00 0.00 46 1010.6
20260904224911 98 163 4.0 6.0 0.00 0.00 0.00 46 1010.7
20260904224407 98 177 4.0 8.0 0.00 0.00 0.00 45 1010.8
20260904223901 97 172 2.0 2.0 0.00 0.00 0.00 46 1010.8
20260904223400 97 190 5.0 8.0 0.00 0.00 0.00 46 1010.7
20260904222856 97 82 5.0 7.0 0.00 0.00 0.00 46 1010.9
20260904222351 98 192 8.0 9.0 0.00 0.00 0.00 46 1010.8
20260904221851 98 172 8.0 9.0 0.00 0.00 0.00 45 1010.9
20260904221346 98 162 3.0 4.0 0.00 0.00 0.00 44 1010.6
20260904220841 98 165 3.0 3.0 0.00 0.00 0.00 45 1010.8
20260904220340 98 175 6.0 8.0 0.00 0.00 0.00 45 1010.8
20260904215836 99 165 6.0 7.0 0.00 0.00 0.00 43 1010.7
20260904215331 99 210 0.0 1.0 0.00 0.00 0.00 45 1010.9
20260904214827 99 137 1.0 2.0 0.00 0.00 0.00 44 1010.9
20260904214322 99 205 2.0 6.0 0.00 0.00 0.00 43 1011.1
20260904213820 100 112 4.0 6.0 0.00 0.00 0.00 42 1011.1
20260904213316 99 165 0.0 1.0 0.00 0.00 0.00 42 1011.1
20260904212812 99 160 2.0 4.0 0.00 0.00 0.00 42 1011.0
20260904212312 99 165 2.0 2.0 0.00 0.00 0.00 43 1011.2
20260904211807 98 190 4.0 7.0 0.00 0.00 0.00 44 1011.3
20260904211302 100 193 6.0 9.0 0.00 0.00 0.00 42 1011.2
20260904210756 99 222 2.0 3.0 0.00 0.00 0.00 43 1011.4
20260904210250 99 161 1.0 1.0 0.00 0.00 0.00 43 1011.6
20260904205747 99 188 2.0 3.0 0.00 0.00 0.00 44 1011.6
20260904205243 98 164 2.0 3.0 0.00 0.00 0.00 44 1011.8
20260904204739 98 186 10.0 11.0 0.00 0.00 0.00 44 1011.8
20260904204235 98 177 5.0 7.0 0.00 0.00 0.00 44 1011.6
20260904203731 98 139 6.0 7.0 0.00 0.00 0.00 44 1011.9
20260904203227 98 207 6.0 7.0 0.00 0.00 0.00 42 1012.0
20260904202723 98 180 5.0 6.0 0.00 0.00 0.00 43 1011.8
20260904202219 98 205 4.0 6.0 0.00 0.00 0.00 42 1012.0
20260904201714 98 217 3.0 8.0 0.00 0.00 0.00 44 1012.0
20260904201214 98 190 3.0 4.0 0.00 0.00 0.00 42 1011.9
20260904200708 97 133 1.0 3.0 0.00 0.00 0.00 43 1012.4
20260904200203 97 202 6.0 8.0 0.00 0.00 0.00 45 1012.0
20260904195702 98 151 4.0 6.0 0.00 0.00 0.00 43 1012.3
20260904195156 98 173 6.0 8.0 0.00 0.00 0.00 42 1012.5
20260904194656 97 165 1.0 2.0 0.00 0.00 0.00 45 1012.6
20260904194150 97 204 4.0 6.0 0.00 0.00 0.00 44 1012.4
20260904193645 97 197 5.0 7.0 0.00 0.00 0.00 44 1012.6
20260904193142 97 166 0.0 1.0 0.00 0.00 0.00 45 1012.7
20260904192641 96 151 3.0 3.0 0.00 0.00 0.00 47 1012.7
20260904192137 96 181 6.0 10.0 0.00 0.00 0.00 48 1012.7
20260904191634 96 206 6.0 8.0 0.00 0.00 0.00 48 1012.9
20260904191130 97 169 4.0 6.0 0.00 0.00 0.00 47 1012.7
20260904190625 96 180 7.0 10.0 0.00 0.00 0.00 47 1012.6
20260904190121 96 112 5.0 7.0 0.00 0.00 0.00 47 1012.8
20260904185618 95 169 1.0 2.0 0.00 0.00 0.00 49 1012.8
20260904185112 97 170 8.0 9.0 0.00 0.00 0.00 48 1013.1
20260904184611 97 202 4.0 6.0 0.00 0.00 0.00 47 1013.1
20260904184107 96 138 2.0 4.0 0.00 0.00 0.00 47 1013.1
20260904183603 95 172 0.0 1.0 0.00 0.00 0.00 49 1013.1
20260904183057 96 151 4.0 6.0 0.00 0.00 0.00 49 1013.1
20260904182552 96 176 2.0 2.0 0.00 0.00 0.00 49 1013.1
20260904182047 96 174 6.0 7.0 0.00 0.00 0.00 50 1013.4
20260904181543 96 172 2.0 7.0 0.00 0.00 0.00 50 1013.4
20260904181042 96 172 0.0 0.0 0.00 0.00 0.00 50 1013.4
20260904180537 95 153 0.0 0.0 0.00 0.00 0.00 49 1013.6
20260904180032 95 155 5.0 7.0 0.00 0.00 0.00 49 1014.0
20260904175526 94 215 4.0 4.0 0.00 0.00 0.00 49 1013.7
20260904175024 94 189 5.0 6.0 0.00 0.00 0.00 48 1013.9
20260904174520 94 204 2.0 2.0 0.00 0.00 0.00 52 1013.7
20260904174017 94 197 5.0 7.0 0.00 0.00 0.00 51 1013.9
20260904173511 93 229 3.0 3.0 0.00 0.00 0.00 51 1013.8
20260904173007 93 232 5.0 6.0 0.00 0.00 0.00 53 1014.2
20260904172502 93 178 2.0 3.0 0.00 0.00 0.00 53 1014.2
20260904172001 93 181 8.0 11.0 0.00 0.00 0.00 53 1013.9
20260904171457 92 185 1.0 2.0 0.00 0.00 0.00 55 1014.5
20260904170953 91 199 4.0 6.0 0.00 0.00 0.00 56 1014.4
20260904170447 91 196 8.0 9.0 0.00 0.00 0.00 57 1014.5
20260904165943 91 204 3.0 3.0 0.00 0.00 0.00 61 1014.2
20260904165442 91 203 6.0 8.0 0.00 0.00 0.00 60 1014.5
20260904164941 90 187 5.0 7.0 0.00 0.00 0.00 60 1014.4
20260904164436 90 207 5.0 8.0 0.00 0.00 0.00 60 1014.6
20260904163932 90 190 3.0 4.0 0.00 0.00 0.00 62 1014.5
20260904163432 90 217 3.0 4.0 0.00 0.00 0.00 61 1014.5
20260904162926 90 158 7.0 9.0 0.00 0.00 0.00 61 1014.6
20260904162422 89 205 5.0 6.0 0.00 0.00 0.00 60 1014.5
20260904161917 88 169 5.0 6.0 0.00 0.00 0.00 64 1014.7
20260904161412 89 187 8.0 9.0 0.00 0.00 0.00 60 1014.9
20260904160908 89 192 3.0 4.0 0.00 0.00 0.00 64 1014.5
20260904160403 88 222 6.0 8.0 0.00 0.00 0.00 63 1014.4
20260904155857 88 217 4.0 4.0 0.00 0.00 0.00 65 1014.4
20260904155352 87 186 6.0 7.0 0.00 0.00 0.00 67 1014.6
20260904154850 87 201 8.0 10.0 0.00 0.00 0.00 67 1014.6
20260904154345 87 179 3.0 6.0 0.00 0.00 0.00 74 1014.6
20260904153841 86 227 3.0 6.0 0.00 0.00 0.00 75 1014.5
20260904153336 85 257 3.0 3.0 0.00 0.00 0.00 79 1014.4
20260904152832 84 225 4.0 4.0 0.00 0.00 0.00 79 1014.1
20260904152327 84 187 5.0 7.0 0.00 0.00 0.00 79 1014.6
20260904151822 84 198 6.0 8.0 0.00 0.00 0.00 81 1014.4
20260904151321 83 181 2.0 2.0 0.00 0.00 0.00 83 1014.2
20260904150817 83 207 4.0 6.0 0.00 0.00 0.00 83 1014.4
20260904150312 82 160 4.0 7.0 0.00 0.00 0.00 84 1014.6
20260904145810 82 196 5.0 7.0 0.00 0.00 0.00 85 1014.4
20260904145306 82 143 5.0 7.0 0.00 0.00 0.00 85 1014.6
20260904144801 82 193 4.0 4.0 0.00 0.00 0.00 87 1014.5
20260904144257 81 187 5.0 6.0 0.00 0.00 0.00 89 1014.4
20260904143752 81 188 6.0 9.0 0.00 0.00 0.00 89 1014.1
20260904143249 80 154 3.0 4.0 0.00 0.00 0.00 91 1014.2
20260904142744 80 203 5.0 8.0 0.00 0.00 0.00 93 1014.0
20260904142240 79 158 4.0 4.0 0.00 0.00 0.00 95 1014.4
20260904141735 78 207 4.0 6.0 0.00 0.00 0.00 96 1014.5
20260904141231 78 185 2.0 3.0 0.00 0.00 0.00 96 1014.1
20260904140726 78 161 2.0 3.0 0.00 0.00 0.00 96 1014.2
20260904140221 77 177 2.0 3.0 0.00 0.00 0.00 97 1014.2
20260904135720 77 153 2.0 3.0 0.00 0.00 0.00 97 1014.5
20260904135216 77 182 2.0 3.0 0.00 0.00 0.00 97 1014.2
20260904134711 77 166 2.0 3.0 0.00 0.00 0.00 97 1014.0
20260904134211 77 149 3.0 4.0 0.00 0.00 0.00 97 1014.1
20260904133705 77 138 3.0 4.0 0.00 0.00 0.00 97 1014.5
20260904133202 77 178 1.0 1.0 0.00 0.00 0.00 97 1014.2
20260904132701 76 174 1.0 1.0 0.00 0.00 0.00 97 1014.1
20260904132156 76 171 3.0 4.0 0.00 0.00 0.00 97 1014.0
20260904131655 76 131 1.0 3.0 0.00 0.00 0.00 97 1013.8
20260904131151 76 181 2.0 3.0 0.00 0.00 0.00 97 1013.8
20260904130651 76 167 4.0 4.0 0.00 0.00 0.00 97 1013.8
20260904130150 76 177 2.0 3.0 0.00 0.00 0.00 97 1013.6
20260904125647 75 182 1.0 2.0 0.00 0.00 0.00 97 1013.9
20260904125142 75 176 1.0 2.0 0.00 0.00 0.00 97 1013.8
20260904124637 75 176 0.0 1.0 0.00 0.00 0.00 97 1013.4
20260904124133 75 182 1.0 1.0 0.00 0.00 0.00 97 1013.5
20260904123633 75 185 2.0 2.0 0.00 0.00 0.00 97 1013.2
20260904123129 75 183 1.0 1.0 0.00 0.00 0.00 97 1013.4
20260904122623 75 177 1.0 1.0 0.00 0.00 0.00 97 1013.3
20260904122118 75 165 2.0 2.0 0.00 0.00 0.00 97 1013.4
20260904121614 75 162 2.0 3.0 0.00 0.00 0.00 97 1013.3
20260904121109 75 168 0.0 0.0 0.00 0.00 0.00 97 1013.4
20260904120605 75 170 2.0 2.0 0.00 0.00 0.00 97 1013.2
20260904120101 75 185 2.0 2.0 0.00 0.00 0.00 97 1013.1
20260904115555 75 170 1.0 2.0 0.00 0.00 0.00 97 1013.0
20260904115050 75 183 1.0 1.0 0.00 0.00 0.00 96 1013.2
20260904114545 75 183 0.0 0.0 0.00 0.00 0.00 96 1013.0
20260904114044 75 185 2.0 2.0 0.00 0.00 0.00 96 1013.3
20260904113538 75 178 3.0 3.0 0.00 0.00 0.00 96 1013.0
20260904113033 75 186 0.0 0.0 0.00 0.00 0.00 96 1013.0
20260904112528 75 164 0.0 1.0 0.00 0.00 0.00 96 1013.0
20260904112024 75 185 0.0 0.0 0.00 0.00 0.00 96 1012.8
20260904111520 75 186 0.0 0.0 0.00 0.00 0.00 96 1012.9
20260904111015 75 186 0.0 0.0 0.00 0.00 0.00 96 1012.9
20260904110514 75 185 0.0 0.0 0.00 0.00 0.00 96 1012.9
20260904110011 75 178 0.0 1.0 0.00 0.00 0.00 96 1012.9
20260904105504 75 185 1.0 1.0 0.00 0.00 0.00 96 1013.1
20260904104959 75 184 0.0 0.0 0.00 0.00 0.00 96 1013.0
20260904104454 75 174 0.0 0.0 0.00 0.00 0.00 96 1012.9
20260904103950 75 176 0.0 0.0 0.00 0.00 0.00 96 1013.0
20260904103446 75 176 0.0 0.0 0.00 0.00 0.00 95 1012.6
20260904102942 75 176 0.0 0.0 0.00 0.00 0.00 95 1012.5
20260904102437 75 176 0.0 0.0 0.00 0.00 0.00 95 1012.5
20260904101927 75 176 0.0 0.0 0.00 0.00 0.00 95 1012.5
20260904101424 75 176 0.0 0.0 0.00 0.00 0.00 95 1012.6
20260904100919 75 176 0.0 0.0 0.00 0.00 0.00 95 1012.5
20260904100415 75 177 0.0 0.0 0.00 0.00 0.00 95 1012.5
20260904095909 75 177 0.0 0.0 0.00 0.00 0.00 95 1012.5
20260904095404 75 176 0.0 0.0 0.00 0.00 0.00 95 1012.4
20260904094859 75 176 0.0 0.0 0.00 0.00 0.00 95 1012.4
20260904094354 75 186 0.0 0.0 0.00 0.00 0.00 95 1012.4
20260904093850 75 187 0.0 0.0 0.00 0.00 0.00 94 1012.3
20260904093350 75 171 0.0 0.0 0.00 0.00 0.00 94 1012.6
20260904092845 75 172 0.0 0.0 0.00 0.00 0.00 94 1012.2
20260904092342 75 168 0.0 0.0 0.00 0.00 0.00 94 1012.6
20260904091838 75 182 0.0 0.0 0.00 0.00 0.00 94 1012.5
20260904091333 75 185 0.0 0.0 0.00 0.00 0.00 94 1012.5
20260904090828 75 183 0.0 0.0 0.00 0.00 0.00 94 1012.6
20260904090324 76 182 0.0 0.0 0.00 0.00 0.00 94 1012.4
20260904085818 76 176 0.0 0.0 0.00 0.00 0.00 94 1012.5
20260904085313 76 186 1.0 1.0 0.00 0.00 0.00 94 1012.4
20260904084809 76 170 2.0 3.0 0.00 0.00 0.00 94 1012.5
20260904084304 76 153 0.0 0.0 0.00 0.00 0.00 94 1012.4
20260904083800 76 186 0.0 0.0 0.00 0.00 0.00 94 1012.4
20260904083256 76 184 1.0 1.0 0.00 0.00 0.00 94 1012.5
20260904082751 76 175 3.0 3.0 0.00 0.00 0.00 94 1012.6
20260904082246 76 180 1.0 2.0 0.00 0.00 0.00 93 1012.3
20260904081741 76 171 0.0 0.0 0.00 0.00 0.00 94 1012.5
20260904081236 76 172 0.0 0.0 0.00 0.00 0.00 93 1012.3
20260904080732 76 181 0.0 0.0 0.00 0.00 0.00 93 1012.5
20260904080222 76 172 0.0 0.0 0.00 0.00 0.00 93 1012.4
20260904075719 76 176 0.0 0.0 0.00 0.00 0.00 93 1012.5
20260904075213 76 186 0.0 0.0 0.00 0.00 0.00 93 1012.3
20260904074712 76 198 0.0 0.0 0.00 0.00 0.00 93 1012.4
20260904074207 76 185 0.0 0.0 0.00 0.00 0.00 93 1012.2
20260904073702 76 185 0.0 0.0 0.00 0.00 0.00 93 1012.6
20260904073158 76 187 0.0 0.0 0.00 0.00 0.00 93 1012.6
20260904072654 76 185 0.0 0.0 0.00 0.00 0.00 93 1012.5
20260904072148 76 185 0.0 0.0 0.00 0.00 0.00 93 1012.5
20260904071644 76 191 0.0 0.0 0.00 0.00 0.00 93 1012.3
20260904071139 76 192 1.0 1.0 0.00 0.00 0.00 93 1012.8
20260904070638 76 188 0.0 0.0 0.00 0.00 0.00 93 1012.9
20260904070133 76 180 0.0 0.0 0.00 0.00 0.00 93 1012.5
20260904065632 76 186 0.0 0.0 0.00 0.00 0.00 92 1012.9
20260904065130 76 183 0.0 0.0 0.00 0.00 0.00 92 1012.7
20260904064625 76 179 0.0 0.0 0.00 0.00 0.00 92 1012.6
20260904064125 76 167 0.0 0.0 0.00 0.00 0.00 92 1013.1
20260904063621 76 179 0.0 0.0 0.00 0.00 0.00 92 1012.8
20260904063116 77 165 0.0 0.0 0.00 0.00 0.00 92 1012.7
20260904062613 77 178 0.0 0.0 0.00 0.00 0.00 92 1012.8
20260904062108 77 173 0.0 0.0 0.00 0.00 0.00 91 1012.7
20260904061603 77 186 0.0 0.0 0.00 0.00 0.00 91 1012.4
20260904061059 77 179 0.0 1.0 0.00 0.00 0.00 91 1012.5
20260904060555 77 172 0.0 0.0 0.00 0.00 0.00 91 1012.6
20260904060051 77 185 0.0 0.0 0.00 0.00 0.00 91 1012.6
20260904055546 77 176 0.0 0.0 0.00 0.00 0.00 90 1012.8
20260904055041 77 156 0.0 0.0 0.00 0.00 0.00 90 1012.6
20260904054537 77 176 2.0 2.0 0.00 0.00 0.00 90 1012.8
20260904054033 77 187 3.0 3.0 0.00 0.00 0.00 90 1012.9
20260904053532 77 160 4.0 6.0 0.00 0.00 0.00 90 1012.7
20260904053028 77 176 2.0 2.0 0.00 0.00 0.00 89 1012.7
20260904052524 77 161 2.0 2.0 0.00 0.00 0.00 89 1012.5
20260904052020 77 178 0.0 0.0 0.00 0.00 0.00 89 1012.8
20260904051516 77 170 1.0 2.0 0.00 0.00 0.00 88 1012.6
20260904051015 77 168 2.0 3.0 0.00 0.00 0.00 88 1013.0
20260904050512 77 174 2.0 2.0 0.00 0.00 0.00 88 1012.8
20260904050007 77 177 1.0 2.0 0.00 0.00 0.00 87 1012.8
20260904045502 77 189 1.0 2.0 0.00 0.00 0.00 87 1012.6